Regional Weather Roundup
Issued by NWS Midland/Odessa, TX

Skip options and go directly to product.
Home | Oldest Version | Previous Version | Current Version | All | Text Only | Save Text | Print | Product List | Glossary Off

Skip product version selection by date and time.   

013
ASUS44 KMAF 270210
RWRMAF
MIDLAND AREA WEATHER ROUNDUP
NATIONAL WEATHER SERVICE MIDLAND TX
900 PM CDT SUN MAR 26 2017

...IN SOUTHWEST TEXAS AND SOUTHEAST NEW MEXICO...

CITY           SKY/WX    TMP DP  RH WIND       PRES   REMARKS
ALPINE         CLEAR     68  21  17 W6        30.00R
ANDREWS        FAIR      68  18  15 W8        29.85R
ARTESIA        CLEAR     64  14  14 W10       29.86R
BIG SPRING     CLEAR     68  23  18 SW8       29.83R
CARLSBAD       CLEAR     67  12  12 W9        29.84R
DRYDEN           N/A     75  15  10 W7        29.79R
FORT STOCKTON  CLEAR     71  23  16 NW7       29.86R
GUAD PASS      CLEAR     61  14  16 SW25G36   29.97
HOBBS          CLEAR     59  10  14 NW8       29.87R
MARFA          CLEAR     62  21  20 W10       29.98R
MIDLAND AIRPK    N/A     73  21  14 SW9       29.84R
MIDLAND INTL   CLEAR     71  20  14 W12       29.83R
ODESSA           N/A     71  20  14 W9        29.85R
PECOS          CLEAR     72  24  16 W12       29.85R
PRESIDIO       FAIR      80  18  10 NW8       29.84R
SEMINOLE       CLEAR     65  16  15 CALM      29.85R
SNYDER         CLEAR     68  26  20 W7        29.80R
WINK           CLEAR     70  17  13 W10       29.83R
$$
...OTHER STATIONS IN TEXAS...

CITY           SKY/WX    TMP DP  RH WIND       PRES   REMARKS
ABILENE        CLEAR     73  34  23 S3        29.76S
AMARILLO       CLEAR     48  37  65 N13       29.91R
AUSTIN         PTCLDY    75  64  68 S8        29.79R
BROWNSVILLE    CLEAR     75  68  78 S14       29.81R
CORPUS CHRISTI PTCLDY    74  69  85 SE23      29.79S
DALLAS FTW     CLOUDY    80  58  46 S22G37    29.68R
DEL RIO        CLEAR     78  49  35 E8        29.73R
EL PASO        PTCLDY    70  15  12 W10       29.92R
HOUSTON INT    MOCLDY    74  65  73 S14       29.86R
LUBBOCK        PTCLDY    67  29  24 N14       29.81R
SAN ANGELO     CLEAR     71  30  21 W3        29.77R
SAN ANTONIO    MOCLDY    75  66  73 SE18      29.80R
WACO           CLOUDY    76  61  59 SE23G30   29.75R
WICHITA FALLS  NOT AVBL
$$
...OTHER LOCATIONS IN NEW MEXICO...

CITY           SKY/WX    TMP DP  RH WIND       PRES   REMARKS
ALAMAGORDO     CLEAR     63  19  19 SE6       29.91S
ALBUQUERQUE    PTCLDY    60  22  23 N12       29.97R
CANNON AFB     PTCLDY    59  31  35 N12       29.88R
CLOVIS         CLEAR     54  30  40 NE9       29.88R
HOLLOMAN AFB   CLEAR     65  17  15 S7        29.93R
ROSWELL        CLEAR     68  14  12 NW7         N/A
RUIDOSO        CLEAR     52   9  17 NW5       30.03R
SANTA FE       CLOUDY    52  26  36 W10       29.98R
TRUTH OR CONSE PTCLDY    66  16  14 S5        29.91R
TUCUMCARI      PTCLDY    61  31  32 NE17      29.86R
$$

  • National Weather Service
  • Southern Region Headquarters
  • 819 Taylor Street, Room 10A06
  • Fort Worth, TX 76102
  • Page Author: NWS Fort Worth
  • Web Master: SR-SRH.Webmaster@noaa.gov
  •  
  • Page last modified: 30-Sep-2016 6:36 PM UTC
USA.gov is the U.S. government's official web portal to all federal, state and local government web resources and services.